Location: Newark
(45.8667°N, 9.7333°E)
Time: 18:11:57
(UTC+00:00)

Explorer 7 - Visible Passes

Search period start: 27 January 2020 00:00
Search period end: 06 February 2020 00:00
Orbit: 485 x 679 km, 50.3° (Epoch: 27 January)

Date Brightness Start Highest point End Pass type
(mag) Time Alt. Az. Time Alt. Az. Time Alt. Az.
01 Feb 8.6 18:12:26 10° S 18:14:19 17° SSE 18:14:19 17° SSE visible
02 Feb 7.9 18:16:31 10° SSW 18:19:32 28° SSE 18:19:32 28° SSE visible
03 Feb 7.2 18:20:59 10° SW 18:24:40 44° SSE 18:24:40 44° SSE visible
04 Feb 6.6 18:25:41 10° SW 18:29:40 66° SSE 18:29:43 66° SE visible
05 Feb 6.5 18:30:33 10° WSW 18:34:34 87° NNW 18:34:43 82° NE visible
